Weather Roundup
Issued by NWS Chicago, IL

Home | Current Version | Previous Version | Graphics & Text | Print | Product List | Glossary On
Versions: 1 2 3 4 5 6 7 8 9 10 11 12 13 14 15 16 17 18 19 20 21 22 23 24 25 26 27 28 29 30 31 32 33 34 35 36 37 38 39 40 41 42 43 44 45 46 47 48 49 50
000
NZUS59 KLOT 111408
HRRLOT

CHICAGO AREA WEATHER ROUNDUP
NATIONAL WEATHER SERVICE CHICAGO/ROMEOVILLE IL
800 AM CST MON DEC 11 2017

NOTE: "FAIR" INDICATES FEW OR NO CLOUDS BELOW 12,000 FEET WITH NO
SIGNIFICANT WEATHER AND/OR OBSTRUCTIONS TO VISIBILITY.

* THESE STATIONS ARE NOT UNDER NWS QUALITY CONTROL. THEY ALSO MAY NOT
  REPORT WEATHER SUCH AS PRECIPITATION OR FOG.

ILZ005-006-012>014-019>023-111500-
NORTHEAST ILLINOIS

CITY           SKY/WX    TMP DP  RH WIND       PRES   REMARKS
OHARE          CLOUDY    29  21  72 S9        29.92F WCI  20
MIDWAY         CLOUDY    29  22  75 S12       29.94F WCI  19
AURORA         CLOUDY    27  22  81 SE12      29.91F WCI  17
LANSING*       CLOUDY    28  24  84 S9        29.96F WCI  19
WAUKEGAN       CLOUDY    27  22  81 S8        29.90F WCI  19
DUPAGE AIRPORT CLOUDY    26  23  88 S10       29.91F FOG     WCI  16
WHEELING       CLOUDY    29  22  75 S10       29.94F WCI  20
KANKAKEE*      CLOUDY    28  22  79 S8        29.96F WCI  20
MORRIS*        CLOUDY    28  23  83 SE7       29.92F WCI  20
LEWIS AIRPORT* CLOUDY    27  23  84 S10       29.93F WCI  17
NORTHERLY ISL    N/A     29  20  69 S10         N/A  WCI  20
$$

WIZ051-052-058>065-066-070>072-111500-
SOUTHEAST WISCONSIN

CITY           SKY/WX    TMP DP  RH WIND       PRES   REMARKS
MILWAUKEE      CLOUDY    26  23  88 S7        29.91F WCI  18
KENOSHA*       CLOUDY    26  22  84 S7        29.91F WCI  18
RACINE*        CLOUDY    26  23  88 S7        29.93F WCI  18
BURLINGTON     CLOUDY    33  33  99 CALM      29.90F
WAUKESHA       CLOUDY    21  19  93 S6        29.90F FOG     WCI  14
WEST BEND      CLOUDY    23  21  93 S6        29.88F WCI  16
$$

INZ001>003-010>013-019-020-111500-
NORTHWEST INDIANA

CITY           SKY/WX    TMP DP  RH WIND       PRES   REMARKS
GARY*          CLOUDY    30  21  69 VRB6      29.98F WCI  24
MICHIGAN CITY* NOT AVBL
RENSSELAER*    NOT AVBL
VALPARAISO     CLOUDY    28  22  78 S8        29.98S WCI  20
$$

LMZ740>746-111500-
SOUTHERN LAKE MICHIGAN

STATION/POSITION TIME  SKY/WX   TEMP WIND        PRES    VSBY
                                AIR  DIR/SP/G
                 (UTC)          (F)  (DEG/KT/KT) (MB)    (MI)
HARRISON CRIB    1340            30  200/ 17/ 19   N/A
BURNHAM HARBOR   1400            29  190/  8/ 11   N/A
CALUMET HARBOR   1342            28  170/  9/ 13 1013.8F
BURNS HARBOR     1340            29  190/ 11/ 15 1015.6S
MICHIGAN CITY    1340            28  180/ 12/ 13   N/A
$$

ABBREVIATIONS USED IN REMARKS
   TC - TEMPERATURE IN CELSIUS
  WCI - WIND CHILL INDEX
   HX - HEAT INDEX
  VSB - VISIBILITY
$$




USA.gov is the U.S. government's official web portal to all federal, state and local government web resources and services.